TIANMU-1 17

Last updated on Fri Sep 11 2026 00:02:39 GMT+0000 (Coordinated Universal Time)

1 58702U 24004C 26253.58204700 .00004060 00000+0 15359-3 0 9991 2 58702 97.4644 79.5084 0006776 63.3439 296.8494 15.27510770148803
UTC large
Height (km)
Speed (km/s)
/
Latitude / Longitude
Inclination (degrees)
Orbital Period (minutes)
Azimuth
Elevation
Range (km)
Doppler Factor

Next 0 passes for location: London (51.5072 / 0.1276)

No passes found over London.
TIANMU-1 17